FNG8 EFTU-EFKE

Flight info

Callsign FNG8
Flight time 2h 13m
Altitude 3000
Route NOUSU 604454N0205457E 630420N0205858E 650603N0242352E INLEK/A040N190IFR
Aircraft D228/L-SDFGHILORVY/S

Departure

Time 2026-04-24 08:54
Airport Turku Airport (EFTU)

Arrival

Time 2026-04-24 11:07
Airport Kemi-Tornio Airport (EFKE)
Time Latitude Longitude Altitude Speed Heading
2026-04-24 08:47 60.51329 22.28775 151 ft 0 kts 176°
2026-04-24 08:49 60.51328 22.28775 151 ft 0 kts 176°
2026-04-24 08:49 60.51320 22.28776 151 ft 4 kts 176°
2026-04-24 08:50 60.51298 22.28701 151 ft 11 kts 274°
2026-04-24 08:50 60.51366 22.28556 145 ft 13 kts 339°
2026-04-24 08:50 60.51384 22.28417 146 ft 14 kts 264°
2026-04-24 08:50 60.51376 22.28190 150 ft 19 kts 268°
2026-04-24 08:51 60.51364 22.27901 158 ft 22 kts 263°
2026-04-24 08:51 60.51346 22.27559 163 ft 26 kts 264°
2026-04-24 08:51 60.51329 22.27168 168 ft 26 kts 265°
2026-04-24 08:51 60.51314 22.26868 169 ft 21 kts 265°
2026-04-24 08:52 60.51301 22.26510 167 ft 29 kts 260°
2026-04-24 08:52 60.51248 22.26193 167 ft 20 kts 248°
2026-04-24 08:52 60.51217 22.25933 164 ft 22 kts 268°
2026-04-24 08:52 60.51207 22.25557 153 ft 26 kts 263°
2026-04-24 08:53 60.51209 22.25329 147 ft 18 kts 293°
2026-04-24 08:53 60.51323 22.25272 152 ft 19 kts 23°
2026-04-24 08:53 60.51380 22.25559 157 ft 42 kts 85°
2026-04-24 08:53 60.51428 22.26559 222 ft 92 kts 78°
2026-04-24 08:54 60.51511 22.27944 525 ft 104 kts 72°
2026-04-24 08:54 60.51682 22.29528 813 ft 124 kts 67°
2026-04-24 08:54 60.52129 22.31021 1243 ft 128 kts 33°
2026-04-24 08:54 60.52972 22.31494 1677 ft 129 kts 351°
2026-04-24 08:55 60.53722 22.30611 2193 ft 132 kts 310°
2026-04-24 08:55 60.54153 22.28905 2565 ft 141 kts 305°
2026-04-24 08:55 60.54870 22.27519 2880 ft 145 kts 338°
2026-04-24 08:55 60.55614 22.26014 3013 ft 164 kts 304°
2026-04-24 08:56 60.56298 22.24075 3007 ft 173 kts 311°
2026-04-24 08:56 60.57032 22.22116 3018 ft 174 kts 309°
2026-04-24 08:56 60.57744 22.20108 2995 ft 174 kts 309°
2026-04-24 08:56 60.58454 22.18111 3004 ft 175 kts 309°
2026-04-24 08:57 60.59162 22.16107 2999 ft 176 kts 309°
2026-04-24 08:57 60.59879 22.14087 3007 ft 176 kts 309°
2026-04-24 08:57 60.60593 22.12060 3007 ft 176 kts 310°
2026-04-24 08:57 60.61310 22.10037 3009 ft 177 kts 310°
2026-04-24 08:58 60.62030 22.07995 3010 ft 177 kts 310°
2026-04-24 08:58 60.62731 22.05934 3006 ft 178 kts 304°
2026-04-24 08:58 60.63139 22.03528 3011 ft 182 kts 287°
2026-04-24 08:58 60.63402 22.01018 3010 ft 180 kts 288°
2026-04-24 08:59 60.63679 21.98507 3021 ft 182 kts 287°
2026-04-24 08:59 60.63953 21.95971 3016 ft 183 kts 288°
2026-04-24 08:59 60.64222 21.93474 3028 ft 183 kts 287°
2026-04-24 08:59 60.64498 21.90930 3016 ft 183 kts 288°
2026-04-24 09:00 60.64774 21.88412 3028 ft 180 kts 288°
2026-04-24 09:00 60.65040 21.85893 3031 ft 183 kts 287°
2026-04-24 09:00 60.65318 21.83366 3018 ft 182 kts 288°
2026-04-24 09:00 60.65582 21.80853 3038 ft 182 kts 287°
2026-04-24 09:01 60.65851 21.78335 3039 ft 182 kts 287°
2026-04-24 09:01 60.66121 21.75814 3042 ft 182 kts 287°
2026-04-24 09:01 60.66393 21.73288 3044 ft 182 kts 287°
2026-04-24 09:01 60.66661 21.70755 3055 ft 182 kts 287°
2026-04-24 09:02 60.66925 21.68267 3052 ft 182 kts 287°
2026-04-24 09:02 60.67194 21.65750 3060 ft 182 kts 287°
2026-04-24 09:02 60.67460 21.63229 3060 ft 181 kts 287°
2026-04-24 09:02 60.67724 21.60719 3070 ft 180 kts 287°
2026-04-24 09:03 60.67992 21.58202 3055 ft 182 kts 287°
2026-04-24 09:03 60.68254 21.55691 3054 ft 180 kts 288°
2026-04-24 09:03 60.68515 21.53215 3059 ft 178 kts 287°
2026-04-24 09:03 60.68774 21.50738 3058 ft 179 kts 287°
2026-04-24 09:04 60.69034 21.48255 3062 ft 179 kts 288°
2026-04-24 09:04 60.69295 21.45775 3059 ft 178 kts 288°
2026-04-24 09:04 60.69552 21.43300 3065 ft 178 kts 288°
2026-04-24 09:04 60.69810 21.40819 3072 ft 179 kts 287°
2026-04-24 09:05 60.70069 21.38330 3073 ft 180 kts 287°
2026-04-24 09:05 60.70327 21.35844 3073 ft 178 kts 287°
2026-04-24 09:05 60.70580 21.33400 3069 ft 178 kts 287°
2026-04-24 09:05 60.70834 21.30927 3068 ft 178 kts 287°
2026-04-24 09:06 60.71091 21.28458 3074 ft 178 kts 287°
2026-04-24 09:06 60.71344 21.25972 3074 ft 178 kts 287°
2026-04-24 09:06 60.71598 21.23499 3070 ft 178 kts 287°
2026-04-24 09:06 60.71852 21.21027 3074 ft 178 kts 287°
2026-04-24 09:07 60.72104 21.18556 3079 ft 177 kts 287°
2026-04-24 09:07 60.72357 21.16081 3080 ft 178 kts 287°
2026-04-24 09:07 60.72857 21.11168 3080 ft 178 kts 287°
2026-04-24 09:08 60.73109 21.08693 3081 ft 178 kts 287°
2026-04-24 09:08 60.73359 21.06219 3081 ft 178 kts 287°
2026-04-24 09:08 60.73610 21.03737 3081 ft 178 kts 287°
2026-04-24 09:08 60.73863 21.01222 3083 ft 178 kts 287°
2026-04-24 09:09 60.74110 20.98773 3081 ft 178 kts 287°
2026-04-24 09:09 60.74434 20.96353 3076 ft 174 kts 299°
2026-04-24 09:09 60.75081 20.94305 3079 ft 171 kts 315°
2026-04-24 09:09 60.75987 20.92772 3084 ft 168 kts 331°
2026-04-24 09:10 60.77064 20.91875 3086 ft 166 kts 346°
2026-04-24 09:10 60.78208 20.91666 3083 ft 165 kts 359°
2026-04-24 09:10 60.79355 20.91711 3091 ft 165 kts 359°
2026-04-24 09:10 60.80501 20.91735 3087 ft 165 kts 359°
2026-04-24 09:11 60.81649 20.91764 3082 ft 165 kts 359°
2026-04-24 09:11 60.82799 20.91795 3090 ft 165 kts 359°
2026-04-24 09:11 60.83950 20.91825 3090 ft 165 kts 359°
2026-04-24 09:11 60.85104 20.91856 3091 ft 166 kts 359°
2026-04-24 09:12 60.86256 20.91887 3086 ft 165 kts 359°
2026-04-24 09:12 60.87405 20.91918 3090 ft 165 kts 359°
2026-04-24 09:12 60.88554 20.91950 3095 ft 165 kts 359°
2026-04-24 09:12 60.89705 20.91980 3095 ft 166 kts 359°
2026-04-24 09:13 60.90850 20.92010 3099 ft 167 kts 359°
2026-04-24 09:13 60.92015 20.92043 3099 ft 168 kts 359°
2026-04-24 09:13 60.93184 20.92075 3096 ft 168 kts 359°
2026-04-24 09:13 60.94354 20.92106 3098 ft 168 kts 359°
2026-04-24 09:14 60.95522 20.92137 3097 ft 168 kts 359°
2026-04-24 09:14 60.96692 20.92169 3098 ft 168 kts 359°
2026-04-24 09:14 60.97859 20.92201 3093 ft 168 kts 359°
2026-04-24 09:14 60.99028 20.92232 3100 ft 168 kts 359°
2026-04-24 09:15 61.00195 20.92262 3097 ft 168 kts 359°
2026-04-24 09:15 61.01364 20.92295 3097 ft 168 kts 359°
2026-04-24 09:15 61.02513 20.92326 3088 ft 167 kts 359°
2026-04-24 09:15 61.03677 20.92358 3087 ft 167 kts 359°
2026-04-24 09:16 61.04842 20.92390 3097 ft 168 kts 359°
2026-04-24 09:16 61.06009 20.92421 3097 ft 168 kts 359°
2026-04-24 09:16 61.07178 20.92453 3098 ft 168 kts 359°
2026-04-24 09:16 61.08349 20.92485 3098 ft 168 kts 359°
2026-04-24 09:17 61.09516 20.92517 3095 ft 168 kts 359°
2026-04-24 09:17 61.10683 20.92549 3095 ft 168 kts 359°
2026-04-24 09:17 61.11849 20.92581 3095 ft 168 kts 359°
2026-04-24 09:17 61.13002 20.92612 3098 ft 168 kts 359°
2026-04-24 09:18 61.14170 20.92644 3095 ft 168 kts 359°
2026-04-24 09:18 61.15341 20.92676 3092 ft 168 kts 360°
2026-04-24 09:18 61.16510 20.92709 3093 ft 168 kts 359°
2026-04-24 09:18 61.17680 20.92741 3093 ft 168 kts 359°
2026-04-24 09:19 61.18854 20.92773 3099 ft 169 kts 359°
2026-04-24 09:19 61.20029 20.92805 3098 ft 169 kts 359°
2026-04-24 09:19 61.21208 20.92838 3095 ft 170 kts 360°
2026-04-24 09:19 61.22392 20.92869 3090 ft 170 kts
2026-04-24 09:20 61.23577 20.92903 3090 ft 171 kts 360°
2026-04-24 09:20 61.24765 20.92936 3091 ft 170 kts
2026-04-24 09:20 61.25951 20.92968 3083 ft 170 kts
2026-04-24 09:20 61.27139 20.93001 3089 ft 170 kts
2026-04-24 09:21 61.28322 20.93033 3091 ft 170 kts
2026-04-24 09:21 61.29510 20.93067 3087 ft 171 kts 360°
2026-04-24 09:21 61.30684 20.93100 3089 ft 171 kts 360°
2026-04-24 09:21 61.31873 20.93132 3092 ft 171 kts
2026-04-24 09:22 61.33059 20.93165 3090 ft 170 kts 360°
2026-04-24 09:22 61.34247 20.93197 3094 ft 170 kts
2026-04-24 09:22 61.35433 20.93230 3094 ft 170 kts
2026-04-24 09:22 61.36620 20.93264 3090 ft 170 kts
2026-04-24 09:23 61.37806 20.93297 3093 ft 170 kts 360°
2026-04-24 09:23 61.38992 20.93329 3085 ft 170 kts
2026-04-24 09:23 61.40164 20.93363 3084 ft 170 kts
2026-04-24 09:23 61.41353 20.93396 3087 ft 170 kts
2026-04-24 09:24 61.42537 20.93429 3100 ft 170 kts
2026-04-24 09:24 61.43719 20.93461 3094 ft 170 kts 360°
2026-04-24 09:24 61.44903 20.93494 3072 ft 171 kts 360°
2026-04-24 09:24 61.46088 20.93528 3072 ft 170 kts
2026-04-24 09:25 61.47273 20.93561 3069 ft 170 kts 360°
2026-04-24 09:25 61.48456 20.93594 3069 ft 170 kts
2026-04-24 09:25 61.49638 20.93627 3069 ft 170 kts
2026-04-24 09:25 61.50824 20.93660 3068 ft 170 kts
2026-04-24 09:26 61.51994 20.93694 3068 ft 170 kts
2026-04-24 09:26 61.53177 20.93727 3066 ft 170 kts
2026-04-24 09:26 61.54359 20.93760 3067 ft 170 kts
2026-04-24 09:26 61.55541 20.93792 3067 ft 170 kts
2026-04-24 09:27 61.56721 20.93826 3071 ft 170 kts
2026-04-24 09:27 61.57901 20.93860 3070 ft 169 kts
2026-04-24 09:27 61.59075 20.93892 3069 ft 169 kts
2026-04-24 09:27 61.60250 20.93925 3069 ft 169 kts
2026-04-24 09:28 61.61425 20.93959 3068 ft 169 kts
2026-04-24 09:28 61.62599 20.93992 3069 ft 169 kts
2026-04-24 09:28 61.63772 20.94025 3070 ft 169 kts
2026-04-24 09:28 61.64949 20.94057 3067 ft 169 kts
2026-04-24 09:29 61.66127 20.94091 3065 ft 169 kts
2026-04-24 09:29 61.66907 20.94114 3064 ft 169 kts
2026-04-24 09:29 61.68080 20.94147 3064 ft 168 kts
2026-04-24 09:29 61.69251 20.94180 3063 ft 168 kts
2026-04-24 09:30 61.70424 20.94213 3066 ft 169 kts
2026-04-24 09:30 61.72000 20.94258 3066 ft 169 kts
2026-04-24 09:30 61.72781 20.94281 3066 ft 169 kts
2026-04-24 09:30 61.73954 20.94314 3066 ft 168 kts
2026-04-24 09:31 61.75129 20.94347 3067 ft 168 kts
2026-04-24 09:31 61.76302 20.94380 3079 ft 169 kts
2026-04-24 09:31 61.77478 20.94414 3076 ft 169 kts
2026-04-24 09:31 61.78656 20.94448 3076 ft 169 kts
2026-04-24 09:32 61.79836 20.94482 3075 ft 169 kts
2026-04-24 09:32 61.81013 20.94515 3075 ft 169 kts
2026-04-24 09:32 61.82175 20.94548 3075 ft 169 kts 360°
2026-04-24 09:32 61.83347 20.94582 3075 ft 168 kts 360°
2026-04-24 09:33 61.84522 20.94615 3077 ft 169 kts
2026-04-24 09:33 61.85700 20.94650 3076 ft 169 kts
2026-04-24 09:33 61.86879 20.94683 3076 ft 169 kts
2026-04-24 09:33 61.88056 20.94717 3076 ft 169 kts
2026-04-24 09:34 61.89235 20.94751 3077 ft 169 kts
2026-04-24 09:34 61.90414 20.94785 3072 ft 169 kts
2026-04-24 09:34 61.91578 20.94819 3071 ft 170 kts
2026-04-24 09:34 61.92759 20.94852 3070 ft 170 kts
2026-04-24 09:35 61.93943 20.94886 3071 ft 170 kts
2026-04-24 09:35 61.95129 20.94921 3072 ft 170 kts
2026-04-24 09:35 61.96313 20.94956 3073 ft 170 kts
2026-04-24 09:35 61.97493 20.94990 3073 ft 169 kts
2026-04-24 09:36 61.98670 20.95023 3074 ft 169 kts
2026-04-24 09:36 61.99846 20.95058 3073 ft 169 kts
2026-04-24 09:36 62.01026 20.95092 3072 ft 170 kts
2026-04-24 09:36 62.02205 20.95125 3074 ft 170 kts
2026-04-24 09:37 62.03390 20.95160 3072 ft 170 kts
2026-04-24 09:37 62.04575 20.95195 3073 ft 170 kts
2026-04-24 09:37 62.05760 20.95230 3071 ft 170 kts
2026-04-24 09:37 62.06925 20.95262 3071 ft 170 kts
2026-04-24 09:38 62.08109 20.95297 3071 ft 170 kts
2026-04-24 09:38 62.09290 20.95331 3070 ft 170 kts
2026-04-24 09:38 62.10475 20.95366 3080 ft 170 kts
2026-04-24 09:38 62.11660 20.95401 3079 ft 170 kts
2026-04-24 09:39 62.12842 20.95436 3079 ft 170 kts
2026-04-24 09:39 62.14025 20.95470 3080 ft 170 kts
2026-04-24 09:39 62.15211 20.95505 3081 ft 170 kts
2026-04-24 09:39 62.16383 20.95538 3078 ft 171 kts
2026-04-24 09:40 62.17575 20.95574 3078 ft 172 kts
2026-04-24 09:40 62.18774 20.95609 3078 ft 172 kts
2026-04-24 09:40 62.19978 20.95645 3079 ft 173 kts
2026-04-24 09:40 62.21186 20.95680 3079 ft 173 kts
2026-04-24 09:41 62.22386 20.95714 3078 ft 172 kts
2026-04-24 09:41 62.23584 20.95751 3078 ft 171 kts
2026-04-24 09:41 62.24776 20.95786 3075 ft 172 kts
2026-04-24 09:41 62.25970 20.95820 3076 ft 171 kts
2026-04-24 09:42 62.27167 20.95855 3073 ft 173 kts
2026-04-24 09:42 62.28356 20.95890 3076 ft 172 kts
2026-04-24 09:42 62.29553 20.95926 3076 ft 172 kts
2026-04-24 09:42 62.30744 20.95962 3077 ft 171 kts
2026-04-24 09:43 62.31932 20.95997 3075 ft 171 kts
2026-04-24 09:43 62.33121 20.96031 3075 ft 171 kts
2026-04-24 09:43 62.34315 20.96066 3073 ft 172 kts
2026-04-24 09:43 62.35516 20.96102 3075 ft 172 kts
2026-04-24 09:44 62.36712 20.96139 3078 ft 172 kts
2026-04-24 09:44 62.37901 20.96173 3079 ft 170 kts
2026-04-24 09:44 62.39089 20.96208 3078 ft 171 kts
2026-04-24 09:44 62.40279 20.96244 3077 ft 171 kts
2026-04-24 09:45 62.41471 20.96279 3069 ft 171 kts
2026-04-24 09:45 62.42661 20.96315 3070 ft 170 kts
2026-04-24 09:45 62.43837 20.96349 3070 ft 171 kts
2026-04-24 09:45 62.45028 20.96385 3066 ft 171 kts
2026-04-24 09:46 62.46228 20.96421 3068 ft 172 kts
2026-04-24 09:46 62.47425 20.96457 3075 ft 172 kts
2026-04-24 09:46 62.48618 20.96492 3076 ft 171 kts
2026-04-24 09:46 62.49806 20.96527 3077 ft 171 kts
2026-04-24 09:47 62.50997 20.96564 3077 ft 171 kts
2026-04-24 09:47 62.52188 20.96600 3077 ft 171 kts
2026-04-24 09:47 62.53377 20.96635 3076 ft 171 kts
2026-04-24 09:47 62.54568 20.96671 3075 ft 171 kts
2026-04-24 09:48 62.55740 20.96705 3077 ft 170 kts
2026-04-24 09:48 62.56925 20.96741 3077 ft 170 kts
2026-04-24 09:48 62.58110 20.96777 3077 ft 170 kts
2026-04-24 09:48 62.59297 20.96813 3075 ft 171 kts
2026-04-24 09:49 62.60488 20.96849 3074 ft 171 kts
2026-04-24 09:49 62.61676 20.96884 3074 ft 171 kts
2026-04-24 09:49 62.62865 20.96920 3075 ft 171 kts
2026-04-24 09:49 62.64054 20.96956 3077 ft 171 kts
2026-04-24 09:50 62.65242 20.96993 3077 ft 171 kts
2026-04-24 09:50 62.66433 20.97028 3077 ft 171 kts
2026-04-24 09:50 62.67622 20.97064 3077 ft 171 kts
2026-04-24 09:50 62.68812 20.97100 3076 ft 171 kts
2026-04-24 09:51 62.70001 20.97137 3073 ft 171 kts
2026-04-24 09:51 62.71190 20.97173 3073 ft 170 kts
2026-04-24 09:51 62.72377 20.97208 3073 ft 171 kts
2026-04-24 09:51 62.73568 20.97245 3074 ft 171 kts
2026-04-24 09:52 62.74747 20.97280 3076 ft 171 kts
2026-04-24 09:52 62.75940 20.97318 3077 ft 172 kts
2026-04-24 09:52 62.77134 20.97354 3078 ft 172 kts
2026-04-24 09:52 62.78330 20.97390 3077 ft 172 kts
2026-04-24 09:53 62.79526 20.97425 3096 ft 172 kts
2026-04-24 09:53 62.80716 20.97462 3091 ft 170 kts
2026-04-24 09:53 62.81904 20.97499 3091 ft 170 kts
2026-04-24 09:53 62.83090 20.97536 3093 ft 171 kts
2026-04-24 09:54 62.84285 20.97571 3087 ft 172 kts
2026-04-24 09:54 62.85483 20.97608 3086 ft 172 kts
2026-04-24 09:54 62.86660 20.97645 3085 ft 171 kts
2026-04-24 09:54 62.87849 20.97682 3084 ft 171 kts
2026-04-24 09:55 62.89036 20.97718 3086 ft 171 kts
2026-04-24 09:55 62.90223 20.97754 3087 ft 171 kts
2026-04-24 09:55 62.91411 20.97790 3087 ft 171 kts
2026-04-24 09:55 62.92603 20.97827 3081 ft 171 kts
2026-04-24 09:56 62.93794 20.97864 3075 ft 171 kts
2026-04-24 09:56 62.94984 20.97901 3076 ft 171 kts
2026-04-24 09:56 62.96177 20.97938 3076 ft 171 kts
2026-04-24 09:56 62.97371 20.97987 3076 ft 171 kts
2026-04-24 09:57 62.98559 20.98008 3078 ft 171 kts
2026-04-24 09:57 62.99741 20.98046 3076 ft 171 kts
2026-04-24 09:57 63.00934 20.98084 3075 ft 171 kts
2026-04-24 09:57 63.02127 20.98122 3075 ft 171 kts
2026-04-24 09:58 63.03320 20.98159 3072 ft 171 kts
2026-04-24 09:58 63.04513 20.98196 3073 ft 172 kts
2026-04-24 09:58 63.05692 20.98232 3074 ft 171 kts
2026-04-24 09:58 63.06878 20.98437 3068 ft 171 kts 12°
2026-04-24 09:59 63.07978 20.99441 3070 ft 173 kts 29°
2026-04-24 09:59 63.08961 21.00965 3072 ft 173 kts 32°
2026-04-24 09:59 63.09952 21.02483 3073 ft 174 kts 32°
2026-04-24 09:59 63.10938 21.03995 3074 ft 174 kts 32°
2026-04-24 10:00 63.11931 21.05524 3074 ft 174 kts 32°
2026-04-24 10:00 63.12920 21.07051 3074 ft 173 kts 32°
2026-04-24 10:00 63.13911 21.08581 3074 ft 173 kts 32°
2026-04-24 10:00 63.14900 21.10109 3074 ft 173 kts 32°
2026-04-24 10:01 63.15888 21.11636 3075 ft 173 kts 32°
2026-04-24 10:01 63.16864 21.13146 3074 ft 173 kts 32°
2026-04-24 10:01 63.17851 21.14676 3073 ft 173 kts 32°
2026-04-24 10:01 63.18839 21.16208 3078 ft 173 kts 32°
2026-04-24 10:02 63.19831 21.17742 3072 ft 173 kts 32°
2026-04-24 10:02 63.20819 21.19281 3071 ft 173 kts 32°
2026-04-24 10:02 63.21792 21.20795 3071 ft 173 kts 32°
2026-04-24 10:02 63.22783 21.22332 3074 ft 174 kts 32°
2026-04-24 10:03 63.23776 21.23876 3083 ft 174 kts 32°
2026-04-24 10:03 63.24769 21.25428 3077 ft 174 kts 32°
2026-04-24 10:03 63.25760 21.26972 3076 ft 174 kts 32°
2026-04-24 10:03 63.26749 21.28517 3076 ft 173 kts 32°
2026-04-24 10:04 63.27734 21.30055 3074 ft 173 kts 32°
2026-04-24 10:04 63.28722 21.31599 3074 ft 173 kts 33°
2026-04-24 10:04 63.29696 21.33125 3074 ft 173 kts 33°
2026-04-24 10:04 63.30683 21.34670 3072 ft 173 kts 32°
2026-04-24 10:05 63.31665 21.36224 3071 ft 174 kts 33°
2026-04-24 10:05 63.32655 21.37760 3074 ft 173 kts 32°
2026-04-24 10:05 63.33644 21.39314 3084 ft 175 kts 32°
2026-04-24 10:05 63.34639 21.40870 3087 ft 176 kts 32°
2026-04-24 10:06 63.35638 21.42435 3091 ft 175 kts 32°
2026-04-24 10:06 63.37605 21.45553 3078 ft 173 kts 32°
2026-04-24 10:06 63.38592 21.47106 3077 ft 173 kts 32°
2026-04-24 10:07 63.39582 21.48667 3074 ft 173 kts 32°
2026-04-24 10:07 63.40565 21.50221 3073 ft 173 kts 32°
2026-04-24 10:07 63.41546 21.51772 3073 ft 173 kts 33°
2026-04-24 10:07 63.42528 21.53325 3072 ft 173 kts 32°
2026-04-24 10:08 63.43507 21.54876 3075 ft 173 kts 32°
2026-04-24 10:08 63.44489 21.56432 3075 ft 173 kts 32°
2026-04-24 10:08 63.45472 21.57991 3074 ft 173 kts 32°
2026-04-24 10:08 63.46452 21.59548 3074 ft 173 kts 32°
2026-04-24 10:09 63.47422 21.61090 3072 ft 173 kts 32°
2026-04-24 10:09 63.48404 21.62651 3073 ft 173 kts 32°
2026-04-24 10:09 63.49387 21.64215 3072 ft 173 kts 32°
2026-04-24 10:09 63.50371 21.65783 3072 ft 173 kts 32°
2026-04-24 10:10 63.51350 21.67346 3070 ft 173 kts 32°
2026-04-24 10:10 63.52333 21.68914 3070 ft 173 kts 32°
2026-04-24 10:10 63.53314 21.70480 3069 ft 173 kts 32°
2026-04-24 10:10 63.54291 21.72044 3070 ft 173 kts 32°
2026-04-24 10:11 63.55259 21.73592 3070 ft 173 kts 32°
2026-04-24 10:11 63.56238 21.75158 3069 ft 172 kts 32°
2026-04-24 10:11 63.57216 21.76727 3069 ft 172 kts 32°
2026-04-24 10:11 63.58193 21.78294 3067 ft 173 kts 33°
2026-04-24 10:12 63.59171 21.79865 3067 ft 173 kts 33°
2026-04-24 10:12 63.60148 21.81434 3067 ft 172 kts 33°
2026-04-24 10:12 63.61125 21.83006 3068 ft 173 kts 32°
2026-04-24 10:12 63.62102 21.84580 3067 ft 173 kts 32°
2026-04-24 10:13 63.63081 21.86157 3064 ft 173 kts 33°
2026-04-24 10:13 63.64063 21.87739 3072 ft 174 kts 32°
2026-04-24 10:13 63.65044 21.89324 3071 ft 174 kts 32°
2026-04-24 10:13 63.66014 21.90890 3071 ft 174 kts 32°
2026-04-24 10:14 63.66995 21.92476 3075 ft 174 kts 32°
2026-04-24 10:14 63.67975 21.94064 3075 ft 174 kts 32°
2026-04-24 10:14 63.68957 21.95654 3066 ft 174 kts 33°
2026-04-24 10:14 63.69940 21.97246 3066 ft 174 kts 33°
2026-04-24 10:15 63.70919 21.98835 3069 ft 173 kts 33°
2026-04-24 10:15 63.71897 22.00424 3069 ft 173 kts 33°
2026-04-24 10:15 63.72546 22.01477 3069 ft 173 kts 33°
2026-04-24 10:15 63.73525 22.03069 3068 ft 174 kts 33°
2026-04-24 10:16 63.74506 22.04666 3068 ft 174 kts 33°
2026-04-24 10:16 63.75485 22.06262 3069 ft 173 kts 33°
2026-04-24 10:16 63.76466 22.07861 3068 ft 174 kts 33°
2026-04-24 10:16 63.77446 22.09460 3068 ft 174 kts 33°
2026-04-24 10:17 63.78427 22.11061 3066 ft 174 kts 33°
2026-04-24 10:17 63.79411 22.12670 3063 ft 174 kts 33°
2026-04-24 10:17 63.80391 22.14275 3064 ft 174 kts 33°
2026-04-24 10:17 63.81373 22.15882 3063 ft 174 kts 33°
2026-04-24 10:18 63.82353 22.17488 3062 ft 174 kts 33°
2026-04-24 10:18 63.83331 22.19093 3063 ft 174 kts 33°
2026-04-24 10:18 63.84298 22.20680 3063 ft 174 kts 33°
2026-04-24 10:18 63.85276 22.22288 3062 ft 174 kts 33°
2026-04-24 10:19 63.86254 22.23896 3065 ft 174 kts 33°
2026-04-24 10:19 63.87231 22.25506 3066 ft 173 kts 33°
2026-04-24 10:19 63.88209 22.27115 3066 ft 173 kts 33°
2026-04-24 10:19 63.89185 22.28727 3065 ft 174 kts 33°
2026-04-24 10:20 63.90164 22.30344 3059 ft 174 kts 32°
2026-04-24 10:20 63.91146 22.31964 3061 ft 174 kts 32°
2026-04-24 10:20 63.92127 22.33586 3062 ft 174 kts 32°
2026-04-24 10:20 63.93106 22.35206 3061 ft 174 kts 32°
2026-04-24 10:21 63.94073 22.36809 3058 ft 174 kts 32°
2026-04-24 10:21 63.95053 22.38432 3058 ft 174 kts 32°
2026-04-24 10:21 63.96031 22.40056 3058 ft 174 kts 32°
2026-04-24 10:21 63.97006 22.41676 3059 ft 173 kts 32°
2026-04-24 10:22 63.97982 22.43299 3058 ft 174 kts 32°
2026-04-24 10:22 63.98962 22.44929 3058 ft 174 kts 32°
2026-04-24 10:22 63.99938 22.46553 3058 ft 173 kts 32°
2026-04-24 10:22 64.00912 22.48176 3053 ft 173 kts 32°
2026-04-24 10:23 64.01887 22.49803 3052 ft 174 kts 32°
2026-04-24 10:23 64.02863 22.51432 3053 ft 174 kts 32°
2026-04-24 10:23 64.03840 22.53066 3053 ft 174 kts 32°
2026-04-24 10:23 64.04806 22.54681 3054 ft 174 kts 33°
2026-04-24 10:24 64.05781 22.56314 3059 ft 174 kts 32°
2026-04-24 10:24 64.06756 22.57969 3053 ft 175 kts 31°
2026-04-24 10:24 64.07746 22.59605 3053 ft 176 kts 31°
2026-04-24 10:24 64.08730 22.61258 3049 ft 176 kts 32°
2026-04-24 10:25 64.09720 22.62923 3048 ft 176 kts 31°
2026-04-24 10:25 64.10704 22.64579 3045 ft 175 kts 31°
2026-04-24 10:25 64.11688 22.66232 3045 ft 176 kts 32°
2026-04-24 10:25 64.12672 22.67893 3046 ft 176 kts 32°
2026-04-24 10:26 64.13659 22.69554 3048 ft 177 kts 32°
2026-04-24 10:26 64.14647 22.71222 3048 ft 176 kts 31°
2026-04-24 10:26 64.15620 22.72869 3045 ft 176 kts 32°
2026-04-24 10:26 64.16604 22.74532 3047 ft 176 kts 32°
2026-04-24 10:27 64.17591 22.76201 3045 ft 177 kts 32°
2026-04-24 10:27 64.18584 22.77882 3046 ft 177 kts 32°
2026-04-24 10:27 64.19575 22.79563 3046 ft 177 kts 32°
2026-04-24 10:27 64.20561 22.81236 3046 ft 176 kts 32°
2026-04-24 10:28 64.21545 22.82906 3041 ft 176 kts 32°
2026-04-24 10:28 64.22530 22.84582 3041 ft 177 kts 32°
2026-04-24 10:28 64.23522 22.86269 3038 ft 177 kts 32°
2026-04-24 10:28 64.24510 22.87953 3037 ft 176 kts 32°
2026-04-24 10:29 64.25495 22.89631 3036 ft 176 kts 32°
2026-04-24 10:29 64.26480 22.91312 3037 ft 176 kts 32°
2026-04-24 10:29 64.27464 22.92993 3036 ft 176 kts 32°
2026-04-24 10:29 64.28449 22.94676 3012 ft 177 kts 32°
2026-04-24 10:30 64.29435 22.96361 3008 ft 176 kts 32°
2026-04-24 10:30 64.30405 22.98024 3010 ft 176 kts 32°
2026-04-24 10:30 64.31392 22.99715 3008 ft 177 kts 32°
2026-04-24 10:30 64.32377 23.01405 3007 ft 177 kts 32°
2026-04-24 10:31 64.33361 23.03095 3013 ft 176 kts 32°
2026-04-24 10:31 64.34346 23.04788 3011 ft 176 kts 32°
2026-04-24 10:31 64.35331 23.06481 3010 ft 177 kts 32°
2026-04-24 10:31 64.36314 23.08174 3011 ft 176 kts 32°
2026-04-24 10:32 64.37297 23.09869 3007 ft 176 kts 32°
2026-04-24 10:32 64.38278 23.11561 3006 ft 176 kts 32°
2026-04-24 10:32 64.39262 23.13258 3005 ft 176 kts 32°
2026-04-24 10:32 64.40245 23.14957 3009 ft 176 kts 32°
2026-04-24 10:33 64.41223 23.16651 3008 ft 176 kts 32°
2026-04-24 10:33 64.42204 23.18349 3017 ft 176 kts 32°
2026-04-24 10:33 64.43186 23.20049 2995 ft 176 kts 32°
2026-04-24 10:33 64.44155 23.21730 2996 ft 176 kts 32°
2026-04-24 10:34 64.45134 23.23429 2997 ft 176 kts 32°
2026-04-24 10:34 64.46114 23.25133 2995 ft 176 kts 32°
2026-04-24 10:34 64.47094 23.26838 2995 ft 176 kts 32°
2026-04-24 10:34 64.48074 23.28543 2998 ft 176 kts 32°
2026-04-24 10:35 64.49044 23.30234 3068 ft 174 kts 32°
2026-04-24 10:35 64.50019 23.31934 3068 ft 175 kts 32°
2026-04-24 10:35 64.50997 23.33638 3068 ft 176 kts 32°
2026-04-24 10:35 64.51977 23.35351 3068 ft 176 kts 32°
2026-04-24 10:36 64.52955 23.37063 3066 ft 176 kts 32°
2026-04-24 10:36 64.53935 23.38780 3066 ft 176 kts 32°
2026-04-24 10:36 64.54912 23.40489 3065 ft 176 kts 32°
2026-04-24 10:36 64.55890 23.42205 3066 ft 176 kts 32°
2026-04-24 10:37 64.56870 23.43923 3065 ft 176 kts 32°
2026-04-24 10:37 64.57846 23.45638 3065 ft 176 kts 32°
2026-04-24 10:37 64.58822 23.47356 3065 ft 176 kts 32°
2026-04-24 10:37 64.59801 23.49079 3065 ft 176 kts 32°
2026-04-24 10:38 64.60778 23.50800 3060 ft 176 kts 32°
2026-04-24 10:38 64.61753 23.52520 3060 ft 176 kts 32°
2026-04-24 10:38 64.62718 23.54222 3060 ft 176 kts 32°
2026-04-24 10:38 64.63695 23.55949 3055 ft 176 kts 32°
2026-04-24 10:39 64.64673 23.57677 3054 ft 176 kts 32°
2026-04-24 10:39 64.65649 23.59405 3055 ft 176 kts 32°
2026-04-24 10:39 64.66622 23.61129 3055 ft 176 kts 32°
2026-04-24 10:39 64.67599 23.62861 3054 ft 176 kts 32°
2026-04-24 10:40 64.68572 23.64589 3073 ft 175 kts 32°
2026-04-24 10:40 64.69543 23.66315 3066 ft 175 kts 32°
2026-04-24 10:40 64.70512 23.68037 3065 ft 174 kts 32°
2026-04-24 10:40 64.71476 23.69753 3064 ft 174 kts 32°
2026-04-24 10:41 64.72441 23.71472 3064 ft 174 kts 32°
2026-04-24 10:41 64.73407 23.73192 3064 ft 175 kts 32°
2026-04-24 10:41 64.74375 23.74919 3056 ft 175 kts 32°
2026-04-24 10:41 64.75341 23.76647 3057 ft 175 kts 32°
2026-04-24 10:42 64.76294 23.78351 3057 ft 174 kts 32°
2026-04-24 10:42 64.77258 23.80075 3056 ft 174 kts 32°
2026-04-24 10:42 64.78224 23.81804 3056 ft 175 kts 32°
2026-04-24 10:42 64.79190 23.83536 3056 ft 175 kts 32°
2026-04-24 10:43 64.80157 23.85272 3057 ft 175 kts 32°
2026-04-24 10:43 64.81122 23.87006 3057 ft 174 kts 32°
2026-04-24 10:43 64.82085 23.88737 3057 ft 175 kts 32°
2026-04-24 10:43 64.83051 23.90475 3057 ft 175 kts 32°
2026-04-24 10:44 64.84014 23.92209 3056 ft 174 kts 32°
2026-04-24 10:44 64.84978 23.93948 3051 ft 174 kts 32°
2026-04-24 10:44 64.85941 23.95686 3052 ft 174 kts 32°
2026-04-24 10:44 64.86903 23.97422 3052 ft 175 kts 32°
2026-04-24 10:45 64.87867 23.99164 3048 ft 175 kts 32°
2026-04-24 10:45 64.88829 24.00906 3049 ft 174 kts 32°
2026-04-24 10:45 64.89778 24.02625 3049 ft 175 kts 32°
2026-04-24 10:45 64.90742 24.04373 3049 ft 175 kts 32°
2026-04-24 10:46 64.91707 24.06123 3049 ft 175 kts 32°
2026-04-24 10:46 64.92675 24.07880 3049 ft 175 kts 32°
2026-04-24 10:46 64.93640 24.09637 3050 ft 175 kts 32°
2026-04-24 10:46 64.94602 24.11387 3058 ft 175 kts 32°
2026-04-24 10:47 64.95568 24.13146 3043 ft 175 kts 32°
2026-04-24 10:47 64.96537 24.14913 3043 ft 176 kts 31°
2026-04-24 10:47 64.97507 24.16684 3044 ft 177 kts 31°
2026-04-24 10:47 64.98468 24.18438 3045 ft 176 kts 31°
2026-04-24 10:48 64.99439 24.20213 3044 ft 176 kts 32°
2026-04-24 10:48 65.00407 24.21986 3044 ft 176 kts 32°
2026-04-24 10:48 65.01373 24.23756 3046 ft 176 kts 31°
2026-04-24 10:48 65.02340 24.25528 3045 ft 176 kts 32°
2026-04-24 10:49 65.03309 24.27305 3039 ft 176 kts 32°
2026-04-24 10:49 65.04274 24.29078 3041 ft 175 kts 32°
2026-04-24 10:49 65.05241 24.30855 3040 ft 175 kts 32°
2026-04-24 10:49 65.06204 24.32629 3038 ft 175 kts 32°
2026-04-24 10:50 65.07165 24.34399 3036 ft 175 kts 32°
2026-04-24 10:50 65.08111 24.36142 3038 ft 175 kts 32°
2026-04-24 10:50 65.09095 24.37807 3036 ft 172 kts 22°
2026-04-24 10:50 65.10205 24.38719 3034 ft 168 kts
2026-04-24 10:51 65.11360 24.38815 3031 ft 165 kts 351°
2026-04-24 10:51 65.12469 24.38178 3032 ft 164 kts 342°
2026-04-24 10:51 65.13570 24.37444 3033 ft 164 kts 343°
2026-04-24 10:51 65.14670 24.36715 3034 ft 164 kts 343°
2026-04-24 10:52 65.15766 24.35982 3032 ft 164 kts 343°
2026-04-24 10:52 65.16863 24.35247 3030 ft 164 kts 343°
2026-04-24 10:52 65.17961 24.34511 3031 ft 164 kts 343°
2026-04-24 10:52 65.19058 24.33775 3027 ft 164 kts 343°
2026-04-24 10:53 65.20157 24.33037 3026 ft 164 kts 343°
2026-04-24 10:53 65.21255 24.32298 3025 ft 164 kts 343°
2026-04-24 10:53 65.22355 24.31557 3027 ft 164 kts 343°
2026-04-24 10:53 65.23452 24.30818 3024 ft 164 kts 343°
2026-04-24 10:54 65.24516 24.30102 3218 ft 156 kts 343°
2026-04-24 10:54 65.25549 24.29405 3474 ft 152 kts 343°
2026-04-24 10:54 65.26561 24.28720 3753 ft 151 kts 343°
2026-04-24 10:54 65.27568 24.28038 4006 ft 151 kts 343°
2026-04-24 10:55 65.28612 24.27332 4018 ft 160 kts 343°
2026-04-24 10:55 65.29699 24.26598 4025 ft 163 kts 343°
2026-04-24 10:55 65.30798 24.25854 4030 ft 165 kts 343°
2026-04-24 10:55 65.31908 24.25158 4028 ft 165 kts 349°
2026-04-24 10:56 65.33064 24.25151 4030 ft 168 kts
2026-04-24 10:56 65.34191 24.25953 4025 ft 171 kts 18°
2026-04-24 10:56 65.35285 24.27067 4027 ft 171 kts 17°
2026-04-24 10:56 65.36367 24.28142 4027 ft 171 kts 17°
2026-04-24 10:57 65.37467 24.29239 4027 ft 171 kts 18°
2026-04-24 10:57 65.38566 24.30339 4027 ft 171 kts 18°
2026-04-24 10:57 65.39666 24.31447 4026 ft 172 kts 18°
2026-04-24 10:57 65.40767 24.32560 4026 ft 171 kts 18°
2026-04-24 10:58 65.41865 24.33675 4027 ft 171 kts 18°
2026-04-24 10:58 65.42962 24.34794 4026 ft 171 kts 18°
2026-04-24 10:58 65.44063 24.35909 4026 ft 171 kts 18°
2026-04-24 10:58 65.45158 24.37015 4039 ft 171 kts 18°
2026-04-24 10:59 65.46255 24.38128 3988 ft 173 kts 18°
2026-04-24 10:59 65.47373 24.39260 3882 ft 175 kts 18°
2026-04-24 10:59 65.48500 24.40405 3776 ft 176 kts 18°
2026-04-24 10:59 65.49614 24.41536 3670 ft 176 kts 18°
2026-04-24 11:00 65.50744 24.42685 3561 ft 176 kts 18°
2026-04-24 11:00 65.51877 24.43829 3452 ft 176 kts 18°
2026-04-24 11:00 65.53002 24.44970 3345 ft 175 kts 18°
2026-04-24 11:00 65.54129 24.46111 3237 ft 176 kts 18°
2026-04-24 11:01 65.55256 24.47261 3125 ft 176 kts 18°
2026-04-24 11:01 65.56394 24.48417 3024 ft 177 kts 18°
2026-04-24 11:01 65.57519 24.49603 2930 ft 176 kts 22°
2026-04-24 11:01 65.58572 24.51122 2819 ft 175 kts 23°
2026-04-24 11:02 65.59663 24.52226 2711 ft 170 kts 10°
2026-04-24 11:02 65.60825 24.52733 2606 ft 168 kts
2026-04-24 11:02 65.61985 24.53087 2509 ft 168 kts
2026-04-24 11:02 65.63140 24.53440 2506 ft 166 kts
2026-04-24 11:03 65.63903 24.53679 2502 ft 166 kts
2026-04-24 11:03 65.65051 24.54044 2484 ft 167 kts
2026-04-24 11:03 65.66195 24.54413 2281 ft 162 kts
2026-04-24 11:03 65.67305 24.54766 2060 ft 160 kts
2026-04-24 11:04 65.68325 24.55110 1829 ft 139 kts
2026-04-24 11:04 65.69262 24.55401 1638 ft 134 kts
2026-04-24 11:04 65.70180 24.55689 1452 ft 133 kts
2026-04-24 11:04 65.71095 24.55982 1262 ft 132 kts
2026-04-24 11:05 65.71939 24.56257 1068 ft 117 kts
2026-04-24 11:05 65.72739 24.56508 896 ft 117 kts
2026-04-24 11:05 65.73530 24.56757 743 ft 114 kts
2026-04-24 11:05 65.74290 24.57008 590 ft 105 kts
2026-04-24 11:06 65.74992 24.57227 469 ft 97 kts
2026-04-24 11:06 65.75616 24.57451 324 ft 86 kts
2026-04-24 11:06 65.76191 24.57638 257 ft 83 kts
2026-04-24 11:06 65.76747 24.57775 145 ft 79 kts 359°
2026-04-24 11:07 65.77683 24.58075 42 ft 37 kts
2026-04-24 11:07 65.77816 24.58113 42 ft 16 kts 360°
2026-04-24 11:07 65.77866 24.58017 41 ft 10 kts 274°
2026-04-24 11:08 65.77872 24.57816 41 ft 9 kts 287°
2026-04-24 11:08 65.77933 24.57772 40 ft 12 kts
2026-04-24 11:08 65.78018 24.57791 41 ft 11 kts 348°
2026-04-24 11:08 65.78083 24.57707 40 ft 0 kts 328°